If you wish to contribute or participate in the discussions about articles you are invited to join SKYbrary as a registered user

 Actions

Abbotsford International Airport

From SKYbrary Wiki

CYXX
Airport
ICAO: CYXX – IATA: YXX
Summary
Name Abbotsford International Airport
Region North America
Territory Canada CA.gif
Location Abbotsford, British Columbia
Serving Abbotsford
Elevation 59.131 m
194 ft
194 ft59.131 m
Coordinates 49° 1' 31.00" N, 122° 21' 48.00" W
Runways
Designator Length Width Surface ROPS
1/19 1624 m5,328.084 ft
61 m200.131 ft
ASP yes/yes
01L/19R 457 m1,499.344 ft
30 m98.425 ft
GRS /
7/25 2926 m9,599.738 ft
61 m200.131 ft
PEM yes/yes


METAR
Observation CYXX 111000Z 11002KT 8SM BCFG SCT040 BKN057 OVC210 06/06 A3012 RMK SC3SC4CI1 SLP203
Station Abbotsford, B. C.
Date/Time 11 April 2019 10:00:00
Wind direction 110°
Wind speed 02 kts
Lowest cloud amount scattered clouds
Temperature 6°C
Dew point 6°C
Humidity 100%
QNH hPa
Weather condition patches fog

BS
Tag(s) Bird Strike
WX
Tag(s) Fog

Abbotsford International Airport

ICAO: CYXX IATA: YXX

Description

Abbotsford International Airport is located near Abbotsford, British Columbia, Canada.

Climatology

Temperate Marine climate/Oceanic climate (Köppen climate classification Cfb). Moderately cool summer and comparatively warm winter.

Maps

Terrain

Loading map...

Airport Layout

Loading map...


Accidents & Serious Incidents at or in vicinity of CYXX

None on SKYbrary